This is the latest recevied weather packets stored in our database for station/object KD6VPH. If no packets are shown the sender has not sent any weather packets the latest 10 day(s).
| Time | Temp. | Humidity | Pressure | Rain* | Wind** | Luminosity | Snow |
|---|---|---|---|---|---|---|---|
| 1777763717 | 23.89° C | 59% | 1012.1 hPa | 0 mm | - | 605 W/m² | - |
| 1777763117 | 23.33° C | 59% | 1012.2 hPa | 0 mm | - | 584 W/m² | - |
| 1777762518 | 23.33° C | 58% | 1012.3 hPa | 0 mm | - | 615 W/m² | - |
| 1777761917 | 23.33° C | 57% | 1012.5 hPa | 0 mm | - | 605 W/m² | - |
| 1777760717 | 23.89° C | 57% | 1012.7 hPa | 0 mm | - | 613 W/m² | - |
| 1777760117 | 23.89° C | 57% | 1012.8 hPa | 0 mm | - | 784 W/m² | - |
| 1777759518 | 23.89° C | 57% | 1012.9 hPa | 0 mm | - | 846 W/m² | - |
| 1777758918 | 23.89° C | 56% | 1013.1 hPa | 0 mm | - | 962 W/m² | - |
| 1777758318 | 23.89° C | 56% | 1013.2 hPa | 0 mm | - | 1034 W/m² | - |
| 1777757718 | 23.89° C | 55% | 1013.1 hPa | 0 mm | - | 1067 W/m² | - |
| 1777757118 | 23.33° C | 59% | 1013.3 hPa | 0 mm | - | 1139 W/m² | - |
| 1777756620 | 23.33° C | 59% | 1013.6 hPa | 0 mm | - | 1299 W/m² | - |
| 1777756518 | 23.33° C | 59% | 1013.6 hPa | 0 mm | - | 1299 W/m² | - |
| 1777755918 | 22.78° C | 58% | 1013.6 hPa | 0 mm | - | 1290 W/m² | - |
| 1777755318 | 22.78° C | 60% | 1013.6 hPa | 0 mm | - | 1296 W/m² | - |
| 1777754718 | 22.22° C | 59% | 1013.7 hPa | 0 mm | - | 1287 W/m² | - |
| 1777754118 | 21.67° C | 60% | 1013.8 hPa | 0 mm | - | 1294 W/m² | - |
| 1777753518 | 21.67° C | 60% | 1013.9 hPa | 0 mm | - | 1290 W/m² | - |
| 1777752918 | 21.67° C | 61% | 1014.1 hPa | 0 mm | - | 1285 W/m² | - |
| 1777752318 | 21.11° C | 62% | 1013.9 hPa | 0 mm | - | 1276 W/m² | - |
| 1777751718 | 20.56° C | 65% | 1013.9 hPa | 0 mm | - | 1259 W/m² | - |
| 1777751118 | 20° C | 64% | 1014.1 hPa | 0 mm | - | 1201 W/m² | - |
| 1777750518 | 20° C | 64% | 1014.1 hPa | 0 mm | - | 898 W/m² | - |
| 1777749918 | 19.44° C | 64% | 1014.1 hPa | 0 mm | - | 1100 W/m² | - |
| 1777749318 | 19.44° C | 65% | 1014.3 hPa | 0 mm | - | 1201 W/m² | - |
* Rain latest hour (hover to see other rain measurements)
** Current wind speed in m/s (hover to see current wind gust speed)